| time (UTC) | temp C | wind direction | speed KPH | gust KPH | rain 1hr cm | rain 24hr cm | rain mn cm | humidity % | barometer mb |
| 20260906121415 | 20 | 11 | 0.0 | 0.0 | 0.00 | 0.00 | 0.00 | 94 | 1018.9 |
| 20260906120948 | 20 | 12 | 0.0 | 0.0 | 0.00 | 0.00 | 0.00 | 94 | 1018.8 |
| 20260906120437 | 20 | 12 | 0.0 | 0.0 | 0.00 | 0.00 | 0.00 | 93 | 1018.7 |
| 20260906115929 | 20 | 12 | 0.0 | 0.0 | 0.00 | 0.00 | 0.00 | 93 | 1018.6 |
| 20260906115418 | 20 | 12 | 0.0 | 3.2 | 0.00 | 0.00 | 0.00 | 93 | 1018.5 |
| 20260906114927 | 20 | 13 | 0.0 | 3.2 | 0.00 | 0.00 | 0.00 | 93 | 1018.5 |
| 20260906114420 | 20 | 12 | 0.0 | 0.0 | 0.00 | 0.00 | 0.00 | 93 | 1018.5 |
| 20260906113929 | 20 | 12 | 0.0 | 0.0 | 0.00 | 0.00 | 0.00 | 93 | 1018.4 |
| 20260906113437 | 20 | 11 | 0.0 | 0.0 | 0.00 | 0.00 | 0.00 | 93 | 1018.4 |
| 20260906112947 | 20 | 11 | 0.0 | 0.0 | 0.00 | 0.00 | 0.00 | 93 | 1018.3 |
| 20260906112431 | 20 | 11 | 0.0 | 0.0 | 0.00 | 0.00 | 0.00 | 93 | 1018.0 |
| 20260906111921 | 20 | 11 | 0.0 | 0.0 | 0.00 | 0.00 | 0.00 | 93 | 1017.9 |
| 20260906111443 | 20 | 11 | 0.0 | 0.0 | 0.00 | 0.00 | 0.00 | 93 | 1017.9 |
| 20260906110928 | 20 | 11 | 0.0 | 0.0 | 0.00 | 0.00 | 0.00 | 93 | 1017.9 |
| 20260906110417 | 20 | 11 | 0.0 | 0.0 | 0.00 | 0.00 | 0.00 | 93 | 1017.9 |
| 20260906105930 | 20 | 11 | 0.0 | 0.0 | 0.00 | 0.00 | 0.00 | 93 | 1017.9 |
| 20260906105420 | 20 | 11 | 0.0 | 0.0 | 0.00 | 0.00 | 0.00 | 93 | 1017.8 |
| 20260906104927 | 20 | 11 | 0.0 | 0.0 | 0.00 | 0.00 | 0.00 | 93 | 1017.6 |
| 20260906104455 | 20 | 11 | 0.0 | 0.0 | 0.00 | 0.00 | 0.00 | 93 | 1017.5 |
| 20260906103941 | 20 | 11 | 0.0 | 0.0 | 0.00 | 0.00 | 0.00 | 93 | 1017.4 |
| 20260906103430 | 20 | 11 | 0.0 | 0.0 | 0.00 | 0.00 | 0.00 | 93 | 1017.5 |
| 20260906102918 | 20 | 11 | 0.0 | 0.0 | 0.00 | 0.00 | 0.00 | 92 | 1017.5 |
| 20260906102449 | 20 | 11 | 0.0 | 0.0 | 0.00 | 0.00 | 0.00 | 92 | 1017.5 |
| 20260906101916 | 20 | 11 | 0.0 | 0.0 | 0.00 | 0.00 | 0.00 | 92 | 1017.5 |
| 20260906101427 | 20 | 11 | 0.0 | 0.0 | 0.00 | 0.00 | 0.00 | 92 | 1017.5 |
| 20260906100918 | 20 | 11 | 0.0 | 0.0 | 0.00 | 0.00 | 0.00 | 92 | 1017.6 |
| 20260906100425 | 20 | 11 | 0.0 | 0.0 | 0.00 | 0.00 | 0.00 | 92 | 1017.5 |
| 20260906095917 | 20 | 11 | 0.0 | 0.0 | 0.00 | 0.00 | 0.00 | 91 | 1017.4 |
| 20260906095426 | 20 | 11 | 0.0 | 0.0 | 0.00 | 0.00 | 0.00 | 92 | 1017.4 |
| 20260906094915 | 20 | 11 | 0.0 | 0.0 | 0.00 | 0.00 | 0.00 | 91 | 1017.4 |
| 20260906094426 | 20 | 11 | 0.0 | 0.0 | 0.00 | 0.00 | 0.00 | 91 | 1017.3 |
| 20260906093914 | 21 | 11 | 0.0 | 0.0 | 0.00 | 0.00 | 0.00 | 91 | 1017.3 |
| 20260906093422 | 21 | 12 | 0.0 | 0.0 | 0.00 | 0.00 | 0.00 | 91 | 1017.4 |
| 20260906092914 | 21 | 12 | 0.0 | 0.0 | 0.00 | 0.00 | 0.00 | 91 | 1017.3 |
| 20260906092422 | 21 | 12 | 0.0 | 0.0 | 0.00 | 0.00 | 0.00 | 91 | 1017.3 |
| 20260906091930 | 21 | 11 | 0.0 | 0.0 | 0.00 | 0.00 | 0.00 | 91 | 1017.3 |
| 20260906091416 | 21 | 11 | 0.0 | 0.0 | 0.00 | 0.00 | 0.00 | 91 | 1017.3 |
| 20260906090954 | 21 | 11 | 0.0 | 0.0 | 0.00 | 0.00 | 0.00 | 91 | 1017.2 |
| 20260906090424 | 21 | 11 | 0.0 | 0.0 | 0.00 | 0.00 | 0.00 | 90 | 1017.2 |
| 20260906085917 | 21 | 11 | 0.0 | 1.6 | 0.00 | 0.00 | 0.00 | 90 | 1017.2 |
| 20260906085426 | 21 | 11 | 0.0 | 1.6 | 0.00 | 0.00 | 0.00 | 90 | 1017.2 |
| 20260906084915 | 21 | 12 | 0.0 | 1.6 | 0.00 | 0.00 | 0.00 | 90 | 1017.3 |
| 20260906084425 | 21 | 11 | 0.0 | 1.6 | 0.00 | 0.00 | 0.00 | 90 | 1017.3 |
| 20260906083915 | 21 | 12 | 0.0 | 1.6 | 0.00 | 0.00 | 0.00 | 90 | 1017.2 |
| 20260906083424 | 21 | 11 | 0.0 | 1.6 | 0.00 | 0.00 | 0.00 | 89 | 1017.3 |
| 20260906082932 | 21 | 11 | 0.0 | 1.6 | 0.00 | 0.00 | 0.00 | 89 | 1017.2 |
| 20260906082419 | 21 | 11 | 0.0 | 1.6 | 0.00 | 0.00 | 0.00 | 89 | 1017.2 |
| 20260906081930 | 21 | 9 | 0.0 | 1.6 | 0.00 | 0.00 | 0.00 | 89 | 1017.1 |
| 20260906081421 | 21 | 9 | 0.0 | 0.0 | 0.00 | 0.00 | 0.00 | 89 | 1017.2 |
| 20260906080924 | 22 | 9 | 0.0 | 3.2 | 0.00 | 0.00 | 0.00 | 89 | 1017.3 |
| 20260906080431 | 22 | 9 | 0.0 | 3.2 | 0.00 | 0.00 | 0.00 | 89 | 1017.5 |
| 20260906075922 | 22 | 5 | 0.0 | 4.8 | 0.00 | 0.00 | 0.00 | 89 | 1017.5 |
| 20260906075430 | 22 | 5 | 0.0 | 4.8 | 0.00 | 0.00 | 0.00 | 89 | 1017.4 |
| 20260906074919 | 22 | 360 | 0.0 | 4.8 | 0.00 | 0.00 | 0.00 | 89 | 1017.4 |
| 20260906074430 | 22 | 12 | 0.0 | 4.8 | 0.00 | 0.00 | 0.00 | 89 | 1017.4 |
| 20260906073938 | 22 | 11 | 1.6 | 4.8 | 0.00 | 0.00 | 0.00 | 88 | 1017.4 |
| 20260906073426 | 22 | 15 | 1.6 | 3.2 | 0.00 | 0.00 | 0.00 | 88 | 1017.5 |
| 20260906072918 | 22 | 55 | 0.0 | 8.0 | 0.00 | 0.00 | 0.00 | 88 | 1017.4 |
| 20260906072427 | 22 | 5 | 3.2 | 8.0 | 0.00 | 0.00 | 0.00 | 88 | 1017.4 |
| 20260906071916 | 22 | 61 | 1.6 | 4.8 | 0.00 | 0.00 | 0.00 | 88 | 1017.4 |
| 20260906071444 | 22 | 13 | 0.0 | 3.2 | 0.00 | 0.00 | 0.00 | 88 | 1017.4 |
| 20260906070925 | 22 | 14 | 1.6 | 4.8 | 0.00 | 0.00 | 0.00 | 88 | 1017.5 |
| 20260906070432 | 22 | 16 | 0.0 | 6.4 | 0.00 | 0.00 | 0.00 | 88 | 1017.6 |
| 20260906065921 | 22 | 360 | 1.6 | 6.4 | 0.00 | 0.00 | 0.00 | 88 | 1017.6 |
| 20260906065430 | 22 | 12 | 0.0 | 4.8 | 0.00 | 0.00 | 0.00 | 88 | 1017.5 |
| 20260906064916 | 22 | 10 | 1.6 | 4.8 | 0.00 | 0.00 | 0.00 | 88 | 1017.5 |
| 20260906064445 | 22 | 20 | 0.0 | 4.8 | 0.00 | 0.00 | 0.00 | 88 | 1017.4 |
| 20260906063932 | 22 | 13 | 1.6 | 4.8 | 0.00 | 0.00 | 0.00 | 88 | 1017.5 |
| 20260906063421 | 22 | 9 | 0.0 | 4.8 | 0.00 | 0.00 | 0.00 | 87 | 1017.5 |
| 20260906062930 | 22 | 13 | 1.6 | 6.4 | 0.00 | 0.00 | 0.00 | 87 | 1017.4 |
| 20260906062420 | 22 | 360 | 1.6 | 6.4 | 0.00 | 0.00 | 0.00 | 87 | 1017.4 |
| 20260906061928 | 22 | 17 | 0.0 | 3.2 | 0.00 | 0.00 | 0.00 | 87 | 1017.4 |
| 20260906061438 | 22 | 20 | 1.6 | 9.7 | 0.00 | 0.00 | 0.00 | 87 | 1017.4 |
| 20260906060922 | 22 | 360 | 1.6 | 9.7 | 0.00 | 0.00 | 0.00 | 87 | 1017.4 |
| 20260906060429 | 22 | 13 | 0.0 | 3.2 | 0.00 | 0.00 | 0.00 | 87 | 1017.4 |
| 20260906055917 | 22 | 18 | 0.0 | 4.8 | 0.00 | 0.00 | 0.00 | 87 | 1017.3 |
| 20260906055454 | 22 | 17 | 0.0 | 4.8 | 0.00 | 0.00 | 0.00 | 87 | 1017.4 |
| 20260906054941 | 22 | 21 | 0.0 | 0.0 | 0.00 | 0.00 | 0.00 | 87 | 1017.4 |
| 20260906054454 | 22 | 25 | 0.0 | 6.4 | 0.00 | 0.00 | 0.00 | 87 | 1017.3 |
| 20260906053943 | 22 | 5 | 1.6 | 6.4 | 0.00 | 0.00 | 0.00 | 87 | 1017.3 |
| 20260906053429 | 22 | 11 | 1.6 | 4.8 | 0.00 | 0.00 | 0.00 | 87 | 1017.4 |
| 20260906052938 | 22 | 10 | 0.0 | 0.0 | 0.00 | 0.00 | 0.00 | 87 | 1017.2 |
| 20260906052443 | 22 | 12 | 0.0 | 1.6 | 0.00 | 0.00 | 0.00 | 87 | 1017.2 |
| 20260906051924 | 22 | 14 | 0.0 | 3.2 | 0.00 | 0.00 | 0.00 | 87 | 1017.3 |
| 20260906051415 | 22 | 14 | 0.0 | 6.4 | 0.00 | 0.00 | 0.00 | 87 | 1017.2 |
| 20260906050924 | 22 | 13 | 1.6 | 6.4 | 0.00 | 0.00 | 0.00 | 87 | 1017.3 |
| 20260906050434 | 22 | 15 | 1.6 | 6.4 | 0.00 | 0.00 | 0.00 | 87 | 1017.2 |
| 20260906045914 | 22 | 12 | 1.6 | 6.4 | 0.00 | 0.00 | 0.00 | 87 | 1017.2 |
| 20260906045423 | 22 | 9 | 1.6 | 6.4 | 0.00 | 0.00 | 0.00 | 87 | 1017.2 |
| 20260906044932 | 22 | 9 | 1.6 | 6.4 | 0.00 | 0.00 | 0.00 | 87 | 1017.1 |
| 20260906044424 | 22 | 360 | 1.6 | 6.4 | 0.00 | 0.00 | 0.00 | 87 | 1016.9 |
| 20260906043932 | 22 | 15 | 1.6 | 6.4 | 0.00 | 0.00 | 0.00 | 87 | 1016.9 |
| 20260906043438 | 22 | 11 | 1.6 | 4.8 | 0.00 | 0.00 | 0.00 | 87 | 1016.8 |
| 20260906042929 | 22 | 360 | 1.6 | 9.7 | 0.00 | 0.00 | 0.00 | 86 | 1016.8 |
| 20260906042418 | 22 | 20 | 3.2 | 9.7 | 0.00 | 0.00 | 0.00 | 86 | 1016.6 |
| 20260906041950 | 22 | 360 | 1.6 | 4.8 | 0.00 | 0.00 | 0.00 | 86 | 1016.6 |
| 20260906041440 | 22 | 29 | 1.6 | 4.8 | 0.00 | 0.00 | 0.00 | 86 | 1016.4 |
| 20260906040951 | 22 | 19 | 1.6 | 8.0 | 0.00 | 0.00 | 0.00 | 86 | 1016.4 |
| 20260906040417 | 22 | 19 | 1.6 | 8.0 | 0.00 | 0.00 | 0.00 | 86 | 1016.4 |
| 20260906035924 | 22 | 13 | 1.6 | 8.0 | 0.00 | 0.00 | 0.00 | 85 | 1016.4 |
| 20260906035430 | 22 | 17 | 3.2 | 8.0 | 0.00 | 0.00 | 0.00 | 85 | 1016.3 |
| 20260906034917 | 22 | 22 | 0.0 | 16.1 | 0.00 | 0.00 | 0.00 | 85 | 1016.3 |
| 20260906034430 | 22 | 11 | 3.2 | 16.1 | 0.00 | 0.00 | 0.00 | 85 | 1016.2 |
| 20260906033941 | 22 | 17 | 1.6 | 4.8 | 0.00 | 0.00 | 0.00 | 85 | 1016.2 |
| 20260906033446 | 22 | 24 | 0.0 | 6.4 | 0.00 | 0.00 | 0.00 | 85 | 1016.2 |
| 20260906032915 | 22 | 13 | 3.2 | 6.4 | 0.00 | 0.00 | 0.00 | 85 | 1016.3 |
| 20260906032424 | 22 | 14 | 1.6 | 9.7 | 0.00 | 0.00 | 0.00 | 85 | 1016.3 |
| 20260906031915 | 22 | 23 | 3.2 | 9.7 | 0.00 | 0.00 | 0.00 | 85 | 1016.4 |
| 20260906031419 | 22 | 19 | 1.6 | 8.0 | 0.00 | 0.00 | 0.00 | 85 | 1016.4 |
| 20260906030955 | 22 | 23 | 1.6 | 8.0 | 0.00 | 0.00 | 0.00 | 85 | 1016.4 |
| 20260906030421 | 22 | 15 | 3.2 | 8.0 | 0.00 | 0.00 | 0.00 | 85 | 1016.3 |
| 20260906025950 | 22 | 24 | 1.6 | 9.7 | 0.00 | 0.00 | 0.00 | 85 | 1016.3 |
| 20260906025419 | 22 | 13 | 1.6 | 12.9 | 0.00 | 0.00 | 0.00 | 84 | 1016.3 |
| 20260906024929 | 22 | 11 | 3.2 | 12.9 | 0.00 | 0.00 | 0.00 | 85 | 1016.4 |
| 20260906024418 | 22 | 11 | 0.0 | 12.9 | 0.00 | 0.00 | 0.00 | 85 | 1016.5 |
| 20260906023929 | 22 | 28 | 3.2 | 12.9 | 0.00 | 0.00 | 0.00 | 84 | 1016.4 |
| 20260906023434 | 22 | 10 | 3.2 | 17.7 | 0.00 | 0.00 | 0.00 | 85 | 1016.3 |
| 20260906022947 | 22 | 12 | 3.2 | 17.7 | 0.00 | 0.00 | 0.00 | 85 | 1016.3 |
| 20260906022429 | 22 | 14 | 3.2 | 8.0 | 0.00 | 0.00 | 0.00 | 85 | 1016.3 |
| 20260906021918 | 22 | 11 | 3.2 | 14.5 | 0.00 | 0.00 | 0.00 | 85 | 1016.3 |
| 20260906021427 | 22 | 22 | 3.2 | 14.5 | 0.00 | 0.00 | 0.00 | 85 | 1016.2 |
| 20260906020915 | 22 | 360 | 1.6 | 12.9 | 0.00 | 0.00 | 0.00 | 85 | 1016.2 |
| 20260906020421 | 22 | 20 | 3.2 | 8.0 | 0.00 | 0.00 | 0.00 | 85 | 1016.2 |
| 20260906015931 | 22 | 9 | 3.2 | 12.9 | 0.00 | 0.00 | 0.00 | 85 | 1016.3 |
| 20260906015438 | 22 | 10 | 3.2 | 12.9 | 0.00 | 0.00 | 0.00 | 86 | 1016.4 |
| 20260906014927 | 22 | 10 | 1.6 | 9.7 | 0.00 | 0.00 | 0.00 | 86 | 1016.5 |
| 20260906014419 | 22 | 14 | 3.2 | 9.7 | 0.00 | 0.00 | 0.00 | 86 | 1016.4 |
| 20260906013928 | 22 | 13 | 0.0 | 6.4 | 0.00 | 0.00 | 0.00 | 86 | 1016.4 |
| 20260906013416 | 22 | 13 | 1.6 | 9.7 | 0.00 | 0.00 | 0.00 | 86 | 1016.5 |
| 20260906012927 | 22 | 15 | 3.2 | 20.9 | 0.00 | 0.00 | 0.00 | 86 | 1016.4 |
| 20260906012418 | 22 | 11 | 4.8 | 20.9 | 0.00 | 0.00 | 0.00 | 85 | 1016.4 |
| 20260906011926 | 22 | 12 | 4.8 | 16.1 | 0.00 | 0.00 | 0.00 | 85 | 1016.5 |
| 20260906011433 | 22 | 88 | 3.2 | 16.1 | 0.00 | 0.00 | 0.00 | 85 | 1016.5 |
| 20260906010942 | 22 | 360 | 4.8 | 16.1 | 0.00 | 0.00 | 0.00 | 85 | 1016.4 |
| 20260906010429 | 22 | 11 | 6.4 | 16.1 | 0.00 | 0.00 | 0.00 | 85 | 1016.3 |
| 20260906005926 | 22 | 13 | 3.2 | 12.9 | 0.00 | 0.00 | 0.00 | 85 | 1016.3 |
| 20260906005433 | 22 | 36 | 4.8 | 9.7 | 0.00 | 0.00 | 0.00 | 85 | 1016.2 |
| 20260906004921 | 22 | 15 | 6.4 | 14.5 | 0.00 | 0.00 | 0.00 | 85 | 1016.1 |
| 20260906004433 | 22 | 9 | 3.2 | 14.5 | 0.00 | 0.00 | 0.00 | 85 | 1016.0 |
| 20260906003922 | 22 | 65 | 6.4 | 14.5 | 0.00 | 0.00 | 0.00 | 84 | 1015.9 |
| 20260906003431 | 22 | 23 | 4.8 | 14.5 | 0.00 | 0.00 | 0.00 | 84 | 1015.8 |
| 20260906002949 | 22 | 11 | 4.8 | 16.1 | 0.00 | 0.00 | 0.00 | 85 | 1015.8 |
| 20260906002417 | 22 | 360 | 4.8 | 16.1 | 0.00 | 0.00 | 0.00 | 85 | 1015.8 |
| 20260906001950 | 22 | 21 | 6.4 | 12.9 | 0.00 | 0.00 | 0.00 | 85 | 1015.6 |
| 20260906001442 | 22 | 23 | 3.2 | 17.7 | 0.00 | 0.00 | 0.00 | 84 | 1015.6 |
| 20260906000948 | 23 | 34 | 4.8 | 17.7 | 0.00 | 0.00 | 0.00 | 84 | 1015.6 |
| 20260906000435 | 23 | 26 | 4.8 | 17.7 | 0.00 | 0.00 | 0.00 | 84 | 1015.6 |
| 20260905235952 | 23 | 25 | 4.8 | 14.5 | 0.00 | 0.00 | 0.00 | 83 | 1015.5 |
| 20260905235416 | 23 | 12 | 3.2 | 16.1 | 0.00 | 0.00 | 0.00 | 83 | 1015.5 |
| 20260905234924 | 23 | 14 | 4.8 | 16.1 | 0.00 | 0.00 | 0.00 | 83 | 1015.5 |
| 20260905234438 | 24 | 32 | 6.4 | 14.5 | 0.00 | 0.00 | 0.00 | 82 | 1015.5 |
| 20260905233925 | 24 | 360 | 4.8 | 8.0 | 0.00 | 0.00 | 0.00 | 81 | 1015.4 |
| 20260905233431 | 24 | 360 | 3.2 | 12.9 | 0.00 | 0.00 | 0.00 | 81 | 1015.4 |
| 20260905232939 | 25 | 263 | 3.2 | 14.5 | 0.00 | 0.00 | 0.00 | 80 | 1015.4 |
| 20260905232426 | 25 | 11 | 6.4 | 14.5 | 0.00 | 0.00 | 0.00 | 80 | 1015.3 |
| 20260905231915 | 25 | 17 | 6.4 | 16.1 | 0.00 | 0.00 | 0.00 | 80 | 1015.1 |
| 20260905231447 | 25 | 43 | 3.2 | 16.1 | 0.00 | 0.00 | 0.00 | 80 | 1015.1 |
| 20260905230917 | 25 | 88 | 1.6 | 14.5 | 0.00 | 0.00 | 0.00 | 80 | 1015.0 |
| 20260905230426 | 25 | 5 | 3.2 | 14.5 | 0.00 | 0.00 | 0.00 | 79 | 1015.1 |
| 20260905225916 | 25 | 273 | 3.2 | 16.1 | 0.00 | 0.00 | 0.00 | 79 | 1015.0 |
| 20260905225422 | 25 | 34 | 3.2 | 25.7 | 0.00 | 0.00 | 0.00 | 79 | 1014.9 |
| 20260905224932 | 26 | 30 | 6.4 | 25.7 | 0.00 | 0.00 | 0.00 | 79 | 1014.8 |
| 20260905224441 | 26 | 35 | 6.4 | 20.9 | 0.00 | 0.00 | 0.00 | 77 | 1014.8 |
| 20260905223929 | 26 | 46 | 3.2 | 20.9 | 0.00 | 0.00 | 0.00 | 76 | 1014.9 |
| 20260905223417 | 26 | 31 | 4.8 | 17.7 | 0.00 | 0.00 | 0.00 | 76 | 1014.7 |
| 20260905222941 | 26 | 23 | 4.8 | 17.7 | 0.00 | 0.00 | 0.00 | 75 | 1014.7 |
| 20260905222429 | 26 | 34 | 4.8 | 12.9 | 0.00 | 0.00 | 0.00 | 75 | 1014.6 |
| 20260905221938 | 27 | 25 | 3.2 | 12.9 | 0.00 | 0.00 | 0.00 | 75 | 1014.5 |
| 20260905221429 | 27 | 5 | 3.2 | 12.9 | 0.00 | 0.00 | 0.00 | 75 | 1014.7 |
| 20260905220915 | 27 | 34 | 3.2 | 16.1 | 0.00 | 0.00 | 0.00 | 75 | 1014.7 |
| 20260905220451 | 27 | 44 | 4.8 | 16.1 | 0.00 | 0.00 | 0.00 | 74 | 1014.7 |
| 20260905215920 | 27 | 248 | 3.2 | 14.5 | 0.00 | 0.00 | 0.00 | 74 | 1014.8 |
| 20260905215429 | 27 | 60 | 6.4 | 12.9 | 0.00 | 0.00 | 0.00 | 74 | 1014.8 |
| 20260905214918 | 27 | 40 | 3.2 | 9.7 | 0.00 | 0.00 | 0.00 | 74 | 1014.7 |
| 20260905214432 | 27 | 90 | 1.6 | 9.7 | 0.00 | 0.00 | 0.00 | 74 | 1014.7 |
| 20260905213918 | 27 | 15 | 4.8 | 12.9 | 0.00 | 0.00 | 0.00 | 74 | 1014.7 |
| 20260905213421 | 27 | 271 | 1.6 | 12.9 | 0.00 | 0.00 | 0.00 | 75 | 1014.7 |
| 20260905212934 | 27 | 5 | 3.2 | 11.3 | 0.00 | 0.00 | 0.00 | 75 | 1014.7 |
| 20260905212444 | 27 | 28 | 3.2 | 8.0 | 0.00 | 0.00 | 0.00 | 76 | 1014.8 |
| 20260905211951 | 27 | 20 | 3.2 | 8.0 | 0.00 | 0.00 | 0.00 | 76 | 1014.8 |
| 20260905211438 | 27 | 70 | 3.2 | 8.0 | 0.00 | 0.00 | 0.00 | 77 | 1014.7 |
| 20260905210925 | 26 | 263 | 1.6 | 4.8 | 0.00 | 0.00 | 0.00 | 78 | 1014.8 |
| 20260905210434 | 26 | 247 | 1.6 | 8.0 | 0.00 | 0.00 | 0.00 | 79 | 1014.8 |
| 20260905205926 | 26 | 5 | 3.2 | 8.0 | 0.00 | 0.00 | 0.00 | 80 | 1014.9 |
| 20260905205434 | 26 | 360 | 1.6 | 6.4 | 0.00 | 0.00 | 0.00 | 80 | 1014.9 |
| 20260905204923 | 26 | 360 | 3.2 | 8.0 | 0.00 | 0.00 | 0.00 | 80 | 1015.0 |
| 20260905204433 | 26 | 360 | 3.2 | 9.7 | 0.00 | 0.00 | 0.00 | 79 | 1015.1 |
| 20260905203922 | 26 | 17 | 4.8 | 9.7 | 0.00 | 0.00 | 0.00 | 78 | 1015.0 |
| 20260905203425 | 26 | 34 | 1.6 | 8.0 | 0.00 | 0.00 | 0.00 | 78 | 1014.9 |
| 20260905202917 | 26 | 11 | 3.2 | 6.4 | 0.00 | 0.00 | 0.00 | 78 | 1014.9 |
| 20260905202425 | 26 | 76 | 1.6 | 9.7 | 0.00 | 0.00 | 0.00 | 78 | 1014.9 |
| 20260905201932 | 26 | 242 | 3.2 | 9.7 | 0.00 | 0.00 | 0.00 | 78 | 1015.0 |
| 20260905201425 | 26 | 27 | 3.2 | 12.9 | 0.00 | 0.00 | 0.00 | 77 | 1015.0 |
| 20260905200932 | 26 | 25 | 1.6 | 12.9 | 0.00 | 0.00 | 0.00 | 77 | 1015.0 |
| 20260905200422 | 27 | 25 | 3.2 | 8.0 | 0.00 | 0.00 | 0.00 | 77 | 1015.0 |
| 20260905195933 | 27 | 61 | 3.2 | 14.5 | 0.00 | 0.00 | 0.00 | 76 | 1015.0 |
| 20260905195418 | 27 | 11 | 3.2 | 14.5 | 0.00 | 0.00 | 0.00 | 76 | 1015.0 |
| 20260905194925 | 27 | 28 | 1.6 | 9.7 | 0.00 | 0.00 | 0.00 | 77 | 1014.9 |
| 20260905194416 | 27 | 251 | 1.6 | 8.0 | 0.00 | 0.00 | 0.00 | 76 | 1015.0 |
| 20260905193954 | 27 | 224 | 3.2 | 12.9 | 0.00 | 0.00 | 0.00 | 77 | 1014.9 |
| 20260905193417 | 27 | 9 | 4.8 | 12.9 | 0.00 | 0.00 | 0.00 | 76 | 1015.0 |
| 20260905192926 | 27 | 252 | 3.2 | 9.7 | 0.00 | 0.00 | 0.00 | 76 | 1015.1 |
| 20260905192433 | 27 | 51 | 1.6 | 9.7 | 0.00 | 0.00 | 0.00 | 76 | 1015.1 |
| 20260905191940 | 27 | 26 | 3.2 | 12.9 | 0.00 | 0.00 | 0.00 | 75 | 1015.1 |
| 20260905191444 | 27 | 130 | 6.4 | 12.9 | 0.00 | 0.00 | 0.00 | 75 | 1015.1 |
| 20260905190932 | 27 | 253 | 1.6 | 17.7 | 0.00 | 0.00 | 0.00 | 76 | 1015.2 |
| 20260905190440 | 28 | 37 | 4.8 | 17.7 | 0.00 | 0.00 | 0.00 | 75 | 1015.3 |
| 20260905185926 | 28 | 15 | 3.2 | 14.5 | 0.00 | 0.00 | 0.00 | 75 | 1015.1 |
| 20260905185415 | 28 | 242 | 3.2 | 14.5 | 0.00 | 0.00 | 0.00 | 75 | 1015.0 |
| 20260905184923 | 28 | 26 | 4.8 | 11.3 | 0.00 | 0.00 | 0.00 | 75 | 1015.0 |
| 20260905184414 | 28 | 29 | 4.8 | 9.7 | 0.00 | 0.00 | 0.00 | 75 | 1015.1 |
| 20260905183923 | 28 | 231 | 3.2 | 9.7 | 0.00 | 0.00 | 0.00 | 76 | 1015.1 |
| 20260905183431 | 28 | 254 | 4.8 | 11.3 | 0.00 | 0.00 | 0.00 | 75 | 1015.1 |
| 20260905182919 | 28 | 271 | 1.6 | 9.7 | 0.00 | 0.00 | 0.00 | 75 | 1015.2 |
| 20260905182428 | 28 | 9 | 1.6 | 8.0 | 0.00 | 0.00 | 0.00 | 74 | 1015.1 |
| 20260905181916 | 28 | 332 | 3.2 | 8.0 | 0.00 | 0.00 | 0.00 | 73 | 1015.1 |
| 20260905181425 | 28 | 11 | 1.6 | 9.7 | 0.00 | 0.00 | 0.00 | 74 | 1015.1 |
| 20260905180913 | 28 | 5 | 3.2 | 9.7 | 0.00 | 0.00 | 0.00 | 73 | 1015.0 |
| 20260905180421 | 28 | 5 | 1.6 | 9.7 | 0.00 | 0.00 | 0.00 | 74 | 1015.0 |
| 20260905175928 | 28 | 10 | 1.6 | 9.7 | 0.00 | 0.00 | 0.00 | 75 | 1015.0 |
| 20260905175438 | 28 | 23 | 4.8 | 8.0 | 0.00 | 0.00 | 0.00 | 74 | 1015.0 |
| 20260905174947 | 28 | 69 | 3.2 | 9.7 | 0.00 | 0.00 | 0.00 | 73 | 1014.9 |
| 20260905174416 | 28 | 336 | 3.2 | 9.7 | 0.00 | 0.00 | 0.00 | 73 | 1015.0 |
| 20260905173925 | 29 | 15 | 1.6 | 9.7 | 0.00 | 0.00 | 0.00 | 73 | 1015.0 |
| 20260905173413 | 28 | 101 | 3.2 | 9.7 | 0.00 | 0.00 | 0.00 | 74 | 1014.9 |
| 20260905172938 | 28 | 31 | 3.2 | 9.7 | 0.00 | 0.00 | 0.00 | 74 | 1015.0 |
| 20260905172424 | 28 | 62 | 3.2 | 8.0 | 0.00 | 0.00 | 0.00 | 74 | 1015.0 |
| 20260905171912 | 28 | 32 | 3.2 | 8.0 | 0.00 | 0.00 | 0.00 | 75 | 1015.0 |
| 20260905171420 | 28 | 109 | 3.2 | 9.7 | 0.00 | 0.00 | 0.00 | 75 | 1015.0 |
| 20260905170927 | 28 | 68 | 1.6 | 9.7 | 0.00 | 0.00 | 0.00 | 74 | 1015.0 |
| 20260905170435 | 28 | 50 | 3.2 | 14.5 | 0.00 | 0.00 | 0.00 | 75 | 1015.0 |
| 20260905165925 | 28 | 11 | 3.2 | 14.5 | 0.00 | 0.00 | 0.00 | 74 | 1014.9 |
| 20260905165435 | 29 | 355 | 3.2 | 9.7 | 0.00 | 0.00 | 0.00 | 73 | 1015.1 |
| 20260905164944 | 29 | 40 | 3.2 | 9.7 | 0.00 | 0.00 | 0.00 | 73 | 1015.1 |
| 20260905164432 | 29 | 5 | 1.6 | 8.0 | 0.00 | 0.00 | 0.00 | 75 | 1015.2 |
| 20260905163921 | 28 | 348 | 3.2 | 8.0 | 0.00 | 0.00 | 0.00 | 74 | 1015.2 |
| 20260905163426 | 29 | 316 | 4.8 | 12.9 | 0.00 | 0.00 | 0.00 | 73 | 1015.1 |
| 20260905162918 | 29 | 42 | 3.2 | 12.9 | 0.00 | 0.00 | 0.00 | 74 | 1015.1 |
| 20260905162426 | 28 | 107 | 1.6 | 12.9 | 0.00 | 0.00 | 0.00 | 75 | 1015.0 |
| 20260905161912 | 28 | 56 | 4.8 | 12.9 | 0.00 | 0.00 | 0.00 | 75 | 1015.1 |
| 20260905161425 | 28 | 311 | 4.8 | 8.0 | 0.00 | 0.00 | 0.00 | 74 | 1015.1 |
| 20260905160914 | 28 | 81 | 3.2 | 8.0 | 0.00 | 0.00 | 0.00 | 75 | 1015.1 |
| 20260905160451 | 28 | 30 | 3.2 | 9.7 | 0.00 | 0.00 | 0.00 | 76 | 1015.1 |
| 20260905155941 | 28 | 323 | 1.6 | 9.7 | 0.00 | 0.00 | 0.00 | 78 | 1015.0 |
| 20260905155427 | 28 | 5 | 1.6 | 9.7 | 0.00 | 0.00 | 0.00 | 78 | 1015.0 |
| 20260905154917 | 27 | 91 | 1.6 | 9.7 | 0.00 | 0.00 | 0.00 | 78 | 1015.0 |
| 20260905154427 | 27 | 331 | 1.6 | 6.4 | 0.00 | 0.00 | 0.00 | 79 | 1015.0 |
| 20260905153915 | 27 | 48 | 3.2 | 8.0 | 0.00 | 0.00 | 0.00 | 80 | 1015.0 |
| 20260905153448 | 27 | 290 | 1.6 | 11.3 | 0.00 | 0.00 | 0.00 | 81 | 1015.0 |
| 20260905152920 | 27 | 21 | 1.6 | 11.3 | 0.00 | 0.00 | 0.00 | 81 | 1015.0 |
| 20260905152430 | 27 | 288 | 4.8 | 9.7 | 0.00 | 0.00 | 0.00 | 80 | 1014.9 |
| 20260905151919 | 27 | 290 | 4.8 | 14.5 | 0.00 | 0.00 | 0.00 | 80 | 1014.8 |
| 20260905151451 | 27 | 13 | 3.2 | 14.5 | 0.00 | 0.00 | 0.00 | 81 | 1014.7 |
| 20260905150918 | 26 | 42 | 3.2 | 14.5 | 0.00 | 0.00 | 0.00 | 81 | 1014.6 |
| 20260905150427 | 26 | 288 | 4.8 | 14.5 | 0.00 | 0.00 | 0.00 | 81 | 1014.7 |
| 20260905145916 | 26 | 22 | 4.8 | 14.5 | 0.00 | 0.00 | 0.00 | 82 | 1014.6 |
| 20260905145426 | 26 | 36 | 6.4 | 14.5 | 0.00 | 0.00 | 0.00 | 82 | 1014.7 |
| 20260905144935 | 26 | 360 | 1.6 | 14.5 | 0.00 | 0.00 | 0.00 | 83 | 1014.5 |
| 20260905144424 | 26 | 19 | 4.8 | 14.5 | 0.00 | 0.00 | 0.00 | 83 | 1014.6 |
| 20260905143932 | 26 | 29 | 4.8 | 9.7 | 0.00 | 0.00 | 0.00 | 84 | 1014.6 |
| 20260905143421 | 25 | 16 | 4.8 | 8.0 | 0.00 | 0.00 | 0.00 | 85 | 1014.6 |
| 20260905142930 | 25 | 34 | 3.2 | 9.7 | 0.00 | 0.00 | 0.00 | 86 | 1014.6 |
| 20260905142441 | 25 | 360 | 3.2 | 12.9 | 0.00 | 0.00 | 0.00 | 87 | 1014.6 |
| 20260905141926 | 25 | 48 | 3.2 | 12.9 | 0.00 | 0.00 | 0.00 | 88 | 1014.5 |
| 20260905141416 | 24 | 42 | 3.2 | 8.0 | 0.00 | 0.00 | 0.00 | 89 | 1014.4 |
| 20260905140952 | 24 | 26 | 3.2 | 8.0 | 0.00 | 0.00 | 0.00 | 90 | 1014.4 |
| 20260905140419 | 24 | 59 | 1.6 | 8.0 | 0.00 | 0.00 | 0.00 | 90 | 1014.4 |
| 20260905135926 | 24 | 14 | 3.2 | 9.7 | 0.00 | 0.00 | 0.00 | 90 | 1014.3 |
| 20260905135432 | 24 | 18 | 4.8 | 12.9 | 0.00 | 0.00 | 0.00 | 89 | 1014.4 |
| 20260905134921 | 24 | 301 | 6.4 | 12.9 | 0.00 | 0.00 | 0.00 | 89 | 1014.3 |
| 20260905134433 | 24 | 19 | 1.6 | 8.0 | 0.00 | 0.00 | 0.00 | 90 | 1014.4 |
| 20260905133923 | 24 | 33 | 1.6 | 8.0 | 0.00 | 0.00 | 0.00 | 90 | 1014.3 |
| 20260905133413 | 24 | 5 | 1.6 | 9.7 | 0.00 | 0.00 | 0.00 | 90 | 1014.5 |
| 20260905132922 | 23 | 88 | 3.2 | 14.5 | 0.00 | 0.00 | 0.00 | 90 | 1014.6 |
| 20260905132432 | 23 | 12 | 4.8 | 14.5 | 0.00 | 0.00 | 0.00 | 90 | 1014.7 |
| 20260905131917 | 24 | 13 | 3.2 | 6.4 | 0.00 | 0.00 | 0.00 | 91 | 1014.8 |
| 20260905131448 | 23 | 53 | 1.6 | 6.4 | 0.00 | 0.00 | 0.00 | 91 | 1014.5 |
| 20260905130914 | 23 | 9 | 3.2 | 8.0 | 0.00 | 0.00 | 0.00 | 90 | 1014.3 |
| 20260905130422 | 24 | 279 | 3.2 | 8.0 | 0.00 | 0.00 | 0.00 | 90 | 1014.2 |
| 20260905125935 | 24 | 15 | 3.2 | 12.9 | 0.00 | 0.00 | 0.00 | 90 | 1014.1 |
| 20260905125452 | 24 | 26 | 3.2 | 12.9 | 0.00 | 0.00 | 0.00 | 90 | 1014.0 |
| 20260905124916 | 24 | 13 | 1.6 | 12.9 | 0.00 | 0.00 | 0.00 | 90 | 1013.9 |
| 20260905124428 | 24 | 44 | 3.2 | 12.9 | 0.00 | 0.00 | 0.00 | 90 | 1013.9 |
| 20260905123937 | 24 | 36 | 3.2 | 8.0 | 0.00 | 0.00 | 0.00 | 91 | 1013.8 |
| 20260905123421 | 24 | 323 | 1.6 | 8.0 | 0.00 | 0.00 | 0.00 | 91 | 1013.7 |
| 20260905122929 | 24 | 24 | 1.6 | 6.4 | 0.00 | 0.00 | 0.00 | 91 | 1013.6 |
| 20260905122417 | 24 | 12 | 1.6 | 4.8 | 0.00 | 0.00 | 0.00 | 91 | 1013.6 |
| 20260905121925 | 24 | 5 | 1.6 | 6.4 | 0.00 | 0.00 | 0.00 | 91 | 1013.7 |